Location: *
(50.3440°N, 18.6237°E)
Time: 18:13:30
(UTC+00:00)

NOAA 11 - Pass Details

Date: 30 November 2020
Orbit: 834 x 849 km, 98.4° (Epoch: 17 January)

Event Time Altitude Azimuth Distance (km) Brightness Sun altitude
Rises 16:15:32 0° 161° (SSE) 3,371 7.3 -13.7°
Reaches altitude 10° 16:17:53 10° 161° (SSE) 2,442 6.6 -14.1°
Maximum altitude 16:23:18 85° 75° (ENE) 848 4.1 -14.9°
Drops below altitude 10° 16:28:47 10° 346° (NNW) 2,467 6.6 -15.7°
Sets 16:31:10 0° 346° (NNW) 3,408 7.3 -16.1°
